Regional Weather Roundup
Issued by NWS Albany, NY

Home | Current Version | Previous Version | Text Only | Print | Product List | Glossary On
Versions: 1 2 3 4 5 6 7 8 9 10 11 12 13 14 15 16 17 18 19 20 21 22 23 24 25 26 27 28 29 30 31 32 33 34 35 36 37 38 39 40 41 42 43 44 45 46 47 48 49 50
000
ASUS41 KALY 211910
RWRALY

NEW YORK STATE HOURLY WEATHER ROUNDUP
NATIONAL WEATHER SERVICE ALBANY NY
200 PM EST THU FEB 21 2019

NOTE: "FAIR" INDICATES FEW OR NO CLOUDS BELOW 12,000 FEET WITH NO
SIGNIFICANT WEATHER AND/OR NO OBSTRUCTIONS TO VISIBILITY.

NYZ032-033-038>043-046>054-057>066-NYZ062>081-082-084-212000-
EAST


CITY           SKY/WX    TMP DP  RH WIND       PRES   REMARKS
ALBANY         PTSUNNY   42  28  57 NW18      29.94R
GLENS FALLS    CLOUDY    40  28  62 SW8       29.89R WCI  34
POUGHKEEPSIE   FAIR      49  27  42 W16G25    29.90S
NEWBURGH       MOSUNNY   48  36  61 NW12      29.91F
MONTGOMERY     FAIR      47  29  49 NW14G25   29.90S
WHITE PLAINS   FAIR      47  34  60 NW15G22   29.90F
ISLIP          FAIR      50  34  54 W20G25    29.91S
NEW YORK CITY  PTSUNNY   49  35  58 W13       29.94S
CENTRAL PARK   PTSUNNY   47  36  65 MISG      29.96F
$$

NYZ005>009-017-018-044>046-055-056-212000-
CENTRAL


CITY           SKY/WX    TMP DP  RH WIND       PRES   REMARKS
FULTON         CLOUDY    39  25  57 W20G28    29.97R WCI  29
SYRACUSE       CLOUDY    38  25  59 W22G32    29.98R WCI  27
ROME           CLOUDY    38  26  62 W15       29.95S WCI  29
ELMIRA         FAIR      45  27  49 W15G23    29.97S
BINGHAMTON     FAIR      40  25  55 W12       29.92S WCI  33
MONTICELLO     PTSUNNY   42  28  57 NW13G22   29.91S
$$

NYZ026>034-041>043-087-212000-
NORTH


CITY           SKY/WX    TMP DP  RH WIND       PRES   REMARKS
WATERTOWN      CLOUDY    36  31  82 SW16G29   29.93R WCI  26
FORT DRUM      NOT AVBL
OGDENSBURG     CLOUDY    37  30  75 SW10G17   29.83R WCI  30
MASSENA        CLOUDY    39  29  67 SW15G22   29.83R WCI  31
SARANAC LAKE   CLOUDY    31  27  85 W10G20    29.79R WCI  22
PLATTSBURGH    CLOUDY    42  26  53 W10G18    29.80S
$$

NYZ001>004-010>016-019>021-085-212000-
WEST


CITY           SKY/WX    TMP DP  RH WIND       PRES   REMARKS
NIAGARA FALLS  CLOUDY    36  28  73 SW25G35   30.01S WCI  24
BUFFALO        PTSUNNY   34  28  79 SW26G40   30.02S WCI  21
DUNKIRK        CLOUDY    35  28  75 W15G25    30.07S WCI  25
JAMESTOWN      FAIR      36  25  64 W20       30.02S WCI  25
WELLSVILLE     FAIR      36  25  64 W20G30    29.97S WCI  25
ROCHESTER      CLOUDY    38  25  59 W28G39    30.00R WCI  26
PENN YAN       FAIR      39  24  55 W17G29    29.98S WCI  30
$$

             KEY
       WCI = WIND CHILL INDEX
       VSB = VISIBILITY
       HX  = HEAT INDEX
$$




USA.gov is the U.S. government's official web portal to all federal, state and local government web resources and services.